This demonstration page uses our WeatherBlox Daily Observations layout. Learn more.

Left ArrowRight Arrow

38.83388, -104.82136

Hourly Observations for March 2, 2018

Temp ( °F °C ) Dew Point ( °F °C ) Humidity (%) Winds ( mph kmh ) Pressure ( in mb ) Visibility ( mi km ) Precip ( " mm )
12:58 am 00:58 Clear 42 5.4 8 -13.3 25 25 S 5 7 29.63 1003 10 16 0.00 0.00
1:58 am 01:58 Clear 41 4.8 9 -12.6 27 27 WNW 7 11 29.62 1003 10 16 0.00 0.00
2:58 am 02:58 Clear 42 5.7 7 -13.7 23 23 SSW 6 9 29.59 1002 10 16 0.00 0.00
3:58 am 03:58 Clear 37 3 9 -12.8 31 31 Calm 29.62 1003 10 16 0.00 0.00
4:58 am 04:58 Clear 40 4.7 6 -14.7 23 23 E 3 6 29.62 1003 10 16 0.00 0.00
5:58 am 05:58 Clear 35 1.5 8 -13.5 32 32 NNW 8 13 29.64 1004 10 16 0.00 0.00
6:58 am 06:58 Sunny 37 2.8 9 -12.8 31 31 Calm 29.65 1004 10 16 0.00 0.00
7:58 am 07:58 Sunny 43 6.2 9 -12.7 25 25 NNE 3 6 29.63 1003 10 16 0.00 0.00
8:58 am 08:58 Sunny 42 5.8 11 -11.7 27 27 NNE 5 7 29.62 1003 10 16 0.00 0.00
9:58 am 09:58 Sunny 48 8.8 9 -12.8 20 20 NE 3 6 29.59 1002 10 16 0.00 0.00
10:58 am 10:58 Sunny 51 10.7 8 -13.3 17 17 NNW 7 11 29.56 1001 10 16 0.00 0.00
11:58 am 11:58 Sunny 56 13.6 5 -15.1 12 12 S 14 22 29.50 999 10 16 0.00 0.00
12:58 pm 12:58 Sunny 56 13.5 4 -15.6 12 12 SE 21 33 29.47 998 10 16 0.00 0.00
1:14 pm 13:14 Sunny 57 14 3 -16 11 11 SSE 23 37 29.46 998 10 16 0.00 0.00
1:17 pm 13:17 Sunny 57 14 3 -16 11 11 SE 16 26 29.50 999 10 16 0.00 0.00
1:58 pm 13:58 Sunny 57 14.1 5 -15 12 12 SE 13 20 29.49 999 10 16 0.00 0.00
2:09 pm 14:09 Sunny 57 14 5 -15 12 12 ESE 13 20 29.48 998 10 16 0.00 0.00
2:20 pm 14:20 Sunny 57 14 5 -15 12 12 ESE 14 22 29.49 999 10 16 0.00 0.00
2:23 pm 14:23 Sunny 57 14 5 -15 12 12 S 16 26 29.48 998 10 16 0.00 0.00
2:45 pm 14:45 Sunny 57 14 5 -15 12 12 S 16 26 29.46 998 10 16 0.00 0.00
2:58 pm 14:58 Sunny 57 13.9 6 -14.7 12 12 SSE 15 24 29.46 998 10 16 0.00 0.00
3:27 pm 15:27 Sunny 57 14 5 -15 12 12 SSE 15 24 29.47 998 10 16 0.00 0.00
3:58 pm 15:58 Sunny 55 12.8 6 -14.5 14 14 SSE 9 15 29.50 999 10 16 0.00 0.00
4:58 pm 16:58 Sunny 54 12.2 5 -14.9 14 14 SSW 5 7 29.49 999 10 16 0.00 0.00
5:58 pm 17:58 Clear 47 8.6 10 -12.5 21 21 WNW 5 7 29.58 1002 10 16 0.00 0.00
6:58 pm 18:58 Clear 48 8.8 8 -13.4 19 19 Calm 29.57 1002 10 16 0.00 0.00
7:58 pm 19:58 Clear 46 7.9 8 -13.3 21 21 WNW 6 9 29.57 1001 10 16 0.00 0.00
8:58 pm 20:58 Clear 47 8.3 6 -14.2 19 19 Calm 29.57 1001 10 16 0.00 0.00
9:58 pm 21:58 Clear 49 9.2 3 -16 15 15 SE 10 17 29.53 1000 10 16 0.00 0.00
10:58 pm 22:58 Clear 47 8.5 6 -14.7 18 18 SSE 6 9 29.52 1000 10 16 0.00 0.00
11:58 pm 23:58 Clear 47 8.1 5 -15 18 18 SSE 10 17 29.51 999 10 16 0.00 0.00

Powered by AerisWeather